FW4827 Weather Reports


time (UTC)temp
C
wind
direction
speed
KPH
gust
KPH
rain 1hr
cm
rain 24hr
cm
rain mn
cm
humidity
%
barometer
mb
20220812001339 8 286 1.6 6.4 0.00 0.00 0.00 71 1022.5
20220812000839 8 235 1.6 9.7 0.00 0.00 0.00 72 1022.5
20220812000339 9 208 4.8 9.7 0.00 0.00 0.00 72 1022.6
20220811235758 9 197 4.8 9.7 0.00 0.00 0.00 73 1022.6
20220811235257 10 202 3.2 9.7 0.00 0.00 0.00 73 1022.9
20220811234839 9 202 3.2 6.4 0.00 0.00 0.00 74 1022.9
20220811234339 9 216 3.2 6.4 0.00 0.00 0.00 73 1023.0
20220811233818 8 218 1.6 6.4 0.00 0.00 0.00 73 1023.0
20220811233319 8 206 1.6 9.7 0.00 0.00 0.00 73 1023.0
20220811232757 9 210 4.8 11.3 0.00 0.00 0.00 73 1023.1
20220811232258 9 223 4.8 11.3 0.00 0.00 0.00 74 1023.1
20220811231818 9 210 6.4 12.9 0.00 0.00 0.00 74 1023.1
20220811231339 9 164 4.8 12.9 0.00 0.00 0.00 75 1023.3
20220811230758 9 139 3.2 9.7 0.00 0.00 0.00 75 1023.4
20220811230339 9 128 3.2 8.0 0.00 0.00 0.00 76 1023.4
20220811225839 9 129 3.2 8.0 0.00 0.00 0.00 77 1023.4
20220811225258 9 130 0.0 6.4 0.00 0.00 0.00 78 1023.4
20220811224818 9 114 0.0 6.4 0.00 0.00 0.00 79 1023.4
20220811224257 9 126 1.6 6.4 0.00 0.00 0.00 79 1023.5
20220811223758 8 109 1.6 8.0 0.00 0.00 0.00 81 1023.6
20220811223257 8 89 1.6 8.0 0.00 0.00 0.00 81 1023.6
20220811222818 8 83 1.6 8.0 0.00 0.00 0.00 82 1023.7
20220811222319 9 62 0.0 3.2 0.00 0.00 0.00 84 1023.5
20220811221757 8 64 0.0 3.2 0.00 0.00 0.00 86 1023.8
20220811221319 8 42 0.0 3.2 0.00 0.00 0.00 87 1023.8
20220811220840 8 47 0.0 4.8 0.00 0.00 0.00 87 1023.9
20220811220318 8 48 0.0 4.8 0.00 0.00 0.00 88 1023.9
20220811215758 7 71 0.0 4.8 0.00 0.00 0.00 88 1024.0
20220811215318 7 77 1.6 4.8 0.00 0.00 0.00 88 1024.1
20220811214840 7 64 0.0 4.8 0.00 0.00 0.00 89 1024.0
20220811214319 7 47 0.0 3.2 0.00 0.00 0.00 90 1024.1
20220811213839 7 59 0.0 4.8 0.00 0.00 0.00 90 1024.2
20220811213258 7 52 1.6 6.4 0.00 0.00 0.00 91 1024.2
20220811212818 6 51 1.6 6.4 0.00 0.00 0.00 91 1024.1
20220811212339 6 47 0.0 3.2 0.00 0.00 0.00 91 1024.1
20220811211840 6 39 0.0 3.2 0.00 0.00 0.00 92 1024.2
20220811211318 6 42 0.0 3.2 0.00 0.00 0.00 91 1024.2
20220811210839 5 36 0.0 1.6 0.00 0.00 0.00 91 1024.3
20220811210340 5 0 0.0 0.0 0.00 0.00 0.00 92 1024.3
20220811205818 5 30 0.0 3.2 0.00 0.00 0.00 91 1024.3
20220811205319 4 25 0.0 3.2 0.00 0.00 0.00 91 1024.2
20220811204818 4 25 0.0 3.2 0.00 0.00 0.00 91 1024.2
20220811204318 3 30 0.0 1.6 0.00 0.00 0.00 92 1024.4
20220811203818 3 22 0.0 1.6 0.00 0.00 0.00 92 1024.2
20220811203318 3 0 0.0 0.0 0.00 0.00 0.00 91 1024.2
20220811202758 2 0 0.0 0.0 0.00 0.00 0.00 91 1024.4
20220811202339 2 0 0.0 0.0 0.00 0.00 0.00 91 1024.2
20220811201757 2 0 0.0 0.0 0.00 0.00 0.00 91 1024.2
20220811201318 1 0 0.0 0.0 0.00 0.00 0.00 91 1024.2
20220811200818 1 0 0.0 0.0 0.00 0.00 0.00 91 1024.3
20220811200258 0 0 0.0 0.0 0.00 0.00 0.00 91 1024.3
20220811195757 0 0 0.0 0.0 0.00 0.00 0.00 91 1024.2
20220811195339 0 0 0.0 0.0 0.00 0.00 0.00 91 1024.2
20220811194757 0 0 0.0 0.0 0.00 0.00 0.00 91 1024.1
20220811194257 0 0 0.0 0.0 0.00 0.00 0.00 91 1024.2
20220811193819 0 0 0.0 0.0 0.00 0.00 0.00 91 1024.2
20220811193339 0 0 0.0 0.0 0.00 0.00 0.00 91 1024.2
20220811192818 0 0 0.0 0.0 0.00 0.00 0.00 91 1024.1
20220811192318 0 0 0.0 0.0 0.00 0.00 0.00 91 1024.0
20220811191840 0 0 0.0 0.0 0.00 0.00 0.00 91 1024.0
20220811191339 0 0 0.0 0.0 0.00 0.00 0.00 91 1024.1
20220811190839 0 0 0.0 0.0 0.00 0.00 0.00 91 1023.9
20220811190340 0 0 0.0 0.0 0.00 0.00 0.00 91 1023.9
20220811185839 0 0 0.0 0.0 0.00 0.00 0.00 91 1024.0
20220811185339 0 0 0.0 0.0 0.00 0.00 0.00 91 1024.0
20220811184819 0 0 0.0 0.0 0.00 0.00 0.00 91 1023.8
20220811184257 0 0 0.0 0.0 0.00 0.00 0.00 91 1023.7
20220811183818 0 0 0.0 0.0 0.00 0.00 0.00 91 1023.8
20220811183318 0 0 0.0 0.0 0.00 0.00 0.00 91 1023.8
20220811182757 0 0 0.0 0.0 0.00 0.00 0.00 90 1023.6
20220811182318 0 0 0.0 0.0 0.00 0.00 0.00 91 1023.6
20220811181818 0 0 0.0 0.0 0.00 0.00 0.00 91 1023.6
20220811181318 0 0 0.0 0.0 0.00 0.00 0.00 91 1023.4
20220811180758 0 0 0.0 0.0 0.00 0.00 0.00 91 1023.4
20220811180318 0 0 0.0 0.0 0.00 0.00 0.00 91 1023.4
20220811175819 0 0 0.0 0.0 0.00 0.00 0.00 91 1023.3
20220811175339 0 0 0.0 0.0 0.00 0.00 0.00 91 1023.3
20220811174818 0 0 0.0 0.0 0.00 0.00 0.00 91 1023.4
20220811174257 0 0 0.0 0.0 0.00 0.00 0.00 91 1023.3
20220811173818 0 0 0.0 0.0 0.00 0.00 0.00 91 1023.2
20220811173318 0 0 0.0 0.0 0.00 0.00 0.00 90 1023.4
20220811172840 1 0 0.0 0.0 0.00 0.00 0.00 90 1023.3
20220811172340 1 0 0.0 0.0 0.00 0.00 0.00 90 1023.4
20220811171839 1 0 0.0 0.0 0.00 0.00 0.00 90 1023.4
20220811171318 1 0 0.0 0.0 0.00 0.00 0.00 90 1023.3
20220811170757 1 22 0.0 1.6 0.00 0.00 0.00 90 1023.0
20220811170318 1 22 0.0 1.6 0.00 0.00 0.00 90 1023.0
20220811165818 1 0 0.0 0.0 0.00 0.00 0.00 90 1023.0
20220811165318 1 0 0.0 0.0 0.00 0.00 0.00 90 1023.0
20220811164839 1 0 0.0 0.0 0.00 0.00 0.00 90 1022.9
20220811164318 1 0 0.0 0.0 0.00 0.00 0.00 90 1023.0
20220811163757 1 0 0.0 0.0 0.00 0.00 0.00 90 1022.8
20220811163257 1 0 0.0 0.0 0.00 0.00 0.00 90 1022.8
20220811162839 1 0 0.0 0.0 0.00 0.00 0.00 90 1022.7
20220811162318 1 0 0.0 0.0 0.00 0.00 0.00 90 1022.8
20220811161818 1 0 0.0 0.0 0.00 0.00 0.00 90 1022.7
20220811161339 1 0 0.0 0.0 0.00 0.00 0.00 90 1022.6
20220811160757 1 0 0.0 0.0 0.00 0.00 0.00 90 1022.9
20220811160318 1 0 0.0 0.0 0.00 0.00 0.00 90 1022.8
20220811155757 1 0 0.0 0.0 0.00 0.00 0.00 90 1022.7
20220811155318 1 0 0.0 0.0 0.00 0.00 0.00 90 1022.8
20220811154818 1 0 0.0 0.0 0.00 0.00 0.00 90 1022.7
20220811154257 1 0 0.0 0.0 0.00 0.00 0.00 89 1022.7
20220811153757 1 0 0.0 0.0 0.00 0.00 0.00 89 1022.8
20220811153339 1 0 0.0 0.0 0.00 0.00 0.00 89 1022.6
20220811152839 1 22 0.0 3.2 0.00 0.00 0.00 90 1022.7
20220811152258 1 7 0.0 3.2 0.00 0.00 0.00 89 1022.7
20220811151757 1 354 0.0 1.6 0.00 0.00 0.00 89 1022.5
20220811151339 1 0 0.0 0.0 0.00 0.00 0.00 89 1022.6
20220811150818 1 0 0.0 0.0 0.00 0.00 0.00 90 1022.5
20220811150257 1 0 0.0 0.0 0.00 0.00 0.00 90 1022.7
20220811145757 1 0 0.0 0.0 0.00 0.00 0.00 90 1022.6
20220811145257 1 0 0.0 0.0 0.00 0.00 0.00 89 1022.6
20220811144757 1 0 0.0 0.0 0.00 0.00 0.00 89 1022.6
20220811144318 1 0 0.0 0.0 0.00 0.00 0.00 89 1022.6
20220811143818 1 0 0.0 0.0 0.00 0.00 0.00 89 1022.7
20220811143339 1 0 0.0 0.0 0.00 0.00 0.00 89 1022.8
20220811142819 1 0 0.0 0.0 0.00 0.00 0.00 89 1022.7
20220811142257 2 0 0.0 0.0 0.00 0.00 0.00 89 1022.9
20220811141757 2 0 0.0 0.0 0.00 0.00 0.00 89 1022.8
20220811141318 2 0 0.0 0.0 0.00 0.00 0.00 89 1022.9
20220811140839 2 0 0.0 0.0 0.00 0.00 0.00 89 1022.9
20220811140318 2 0 0.0 0.0 0.00 0.00 0.00 89 1022.8
20220811135839 2 0 0.0 0.0 0.00 0.00 0.00 89 1022.9
20220811135339 2 0 0.0 0.0 0.00 0.00 0.00 89 1023.1
20220811134819 2 0 0.0 0.0 0.00 0.00 0.00 88 1022.9
20220811134339 2 0 0.0 0.0 0.00 0.00 0.00 88 1023.0
20220811133839 2 0 0.0 0.0 0.00 0.00 0.00 88 1023.0
20220811133318 2 27 0.0 1.6 0.00 0.00 0.00 88 1023.1
20220811132757 2 25 0.0 3.2 0.00 0.00 0.00 88 1023.0
20220811132257 2 22 0.0 3.2 0.00 0.00 0.00 88 1023.0
20220811131818 2 0 0.0 0.0 0.00 0.00 0.00 88 1023.1
20220811131339 2 0 0.0 0.0 0.00 0.00 0.00 88 1023.2
20220811130818 2 67 0.0 1.6 0.00 0.00 0.00 88 1023.1
20220811130339 2 67 0.0 1.6 0.00 0.00 0.00 88 1023.3
20220811125757 2 0 0.0 0.0 0.00 0.00 0.00 88 1023.2
20220811125257 2 67 0.0 1.6 0.00 0.00 0.00 88 1023.2
20220811124818 2 67 0.0 1.6 0.00 0.00 0.00 88 1023.3
20220811124257 2 0 0.0 0.0 0.00 0.00 0.00 88 1023.2
20220811123757 2 0 0.0 0.0 0.00 0.00 0.00 88 1023.2
20220811123339 2 0 0.0 0.0 0.00 0.00 0.00 88 1023.2
20220811122818 2 67 0.0 3.2 0.00 0.00 0.00 88 1023.1
20220811122339 2 67 0.0 3.2 0.00 0.00 0.00 88 1023.0
20220811121818 2 0 0.0 0.0 0.00 0.00 0.00 88 1022.9
20220811121318 2 0 0.0 0.0 0.00 0.00 0.00 88 1023.1
20220811120757 2 0 0.0 0.0 0.00 0.00 0.00 88 1023.0
20220811120257 2 0 0.0 0.0 0.00 0.00 0.00 87 1023.1
20220811115758 2 0 0.0 0.0 0.00 0.00 0.00 87 1022.9
20220811115339 2 0 0.0 0.0 0.00 0.00 0.00 87 1023.0
20220811114757 3 54 0.0 4.8 0.00 0.00 0.00 87 1023.0
20220811114318 3 54 0.0 4.8 0.00 0.00 0.00 87 1022.9
20220811113818 2 0 0.0 0.0 0.00 0.00 0.00 87 1022.9
20220811113318 2 45 0.0 3.2 0.00 0.00 0.00 87 1022.9
20220811112818 2 47 0.0 3.2 0.00 0.00 0.00 87 1022.8
20220811112257 2 67 0.0 1.6 0.00 0.00 0.00 86 1022.9
20220811111839 2 0 0.0 0.0 0.00 0.00 0.00 86 1022.8
20220811111339 2 0 0.0 0.0 0.00 0.00 0.00 86 1022.9
20220811110758 2 0 0.0 0.0 0.00 0.00 0.00 86 1022.8
20220811110257 2 0 0.0 0.0 0.00 0.00 0.00 86 1022.8
20220811105757 2 0 0.0 0.0 0.00 0.00 0.00 86 1022.6
20220811105257 2 76 0.0 1.6 0.00 0.00 0.00 86 1022.6
20220811104757 2 76 0.0 1.6 0.00 0.00 0.00 86 1022.6
20220811104318 2 0 0.0 0.0 0.00 0.00 0.00 86 1022.6
20220811103839 2 0 0.0 0.0 0.00 0.00 0.00 85 1022.7
20220811103318 2 0 0.0 0.0 0.00 0.00 0.00 85 1022.7
20220811102839 3 0 0.0 0.0 0.00 0.00 0.00 85 1022.7
20220811102257 3 0 0.0 0.0 0.00 0.00 0.00 85 1022.7
20220811101839 3 0 0.0 0.0 0.00 0.00 0.00 85 1022.6
20220811101318 3 0 0.0 0.0 0.00 0.00 0.00 85 1022.5
20220811100818 3 0 0.0 0.0 0.00 0.00 0.00 85 1022.5
20220811100257 3 90 0.0 1.6 0.00 0.00 0.00 85 1022.5
20220811095839 3 90 0.0 1.6 0.00 0.00 0.00 85 1022.4
20220811095339 3 90 0.0 1.6 0.00 0.00 0.00 85 1022.3
20220811094818 3 0 0.0 0.0 0.00 0.00 0.00 84 1022.6
20220811094318 4 0 0.0 0.0 0.00 0.00 0.00 84 1022.5
20220811093757 4 0 0.0 0.0 0.00 0.00 0.00 84 1022.5
20220811093318 4 0 0.0 0.0 0.00 0.00 0.00 84 1022.4
20220811092818 4 0 0.0 0.0 0.00 0.00 0.00 84 1022.5
20220811092339 4 93 0.0 1.6 0.00 0.00 0.00 84 1022.4
20220811091757 4 93 0.0 1.6 0.00 0.00 0.00 83 1022.5
20220811091339 4 112 0.0 1.6 0.00 0.00 0.00 83 1022.5
20220811090818 4 112 0.0 1.6 0.00 0.00 0.00 83 1022.5
20220811090318 4 0 0.0 0.0 0.00 0.00 0.00 83 1022.4
20220811085818 5 0 0.0 0.0 0.00 0.00 0.00 83 1022.5
20220811085339 5 0 0.0 0.0 0.00 0.00 0.00 83 1022.4
20220811084818 5 112 0.0 3.2 0.00 0.00 0.00 83 1022.3
20220811084257 5 112 0.0 3.2 0.00 0.00 0.00 83 1022.3
20220811083839 5 112 0.0 3.2 0.00 0.00 0.00 82 1022.2
20220811083257 5 112 0.0 1.6 0.00 0.00 0.00 82 1022.0
20220811082757 5 0 0.0 0.0 0.00 0.00 0.00 82 1022.1
20220811082339 5 135 0.0 3.2 0.00 0.00 0.00 82 1021.9
20220811081839 5 131 0.0 3.2 0.00 0.00 0.00 82 1022.0
20220811081257 5 116 0.0 3.2 0.00 0.00 0.00 81 1022.0
20220811080818 5 123 1.6 4.8 0.00 0.00 0.00 81 1021.9
20220811080339 6 130 1.6 4.8 0.00 0.00 0.00 81 1021.8
20220811075839 6 132 3.2 4.8 0.00 0.00 0.00 81 1021.8
20220811075318 6 128 1.6 4.8 0.00 0.00 0.00 81 1021.8
20220811074839 6 126 1.6 4.8 0.00 0.00 0.00 80 1021.8
20220811074318 6 129 1.6 4.8 0.00 0.00 0.00 80 1021.7
20220811073757 6 128 1.6 4.8 0.00 0.00 0.00 80 1021.5
20220811073318 6 129 1.6 4.8 0.00 0.00 0.00 80 1021.8
20220811072818 6 136 1.6 4.8 0.00 0.00 0.00 80 1021.5
20220811072257 6 138 3.2 6.4 0.00 0.00 0.00 79 1021.5
20220811071818 7 139 3.2 8.0 0.00 0.00 0.00 79 1021.4
20220811071318 7 141 4.8 8.0 0.00 0.00 0.00 79 1021.5
20220811070818 7 143 4.8 9.7 0.00 0.00 0.00 79 1021.2
20220811070257 7 140 4.8 9.7 0.00 0.00 0.00 79 1021.2
20220811065839 7 137 6.4 14.5 0.00 0.00 0.00 79 1021.2
20220811065318 7 137 6.4 14.5 0.00 0.00 0.00 79 1021.2
20220811064839 7 143 4.8 11.3 0.00 0.00 0.00 79 1021.1
20220811064318 7 148 4.8 8.0 0.00 0.00 0.00 78 1021.1
20220811063818 7 142 4.8 8.0 0.00 0.00 0.00 78 1021.2
20220811063318 7 139 4.8 9.7 0.00 0.00 0.00 78 1021.1
20220811062818 7 138 4.8 9.7 0.00 0.00 0.00 78 1021.1
20220811062339 7 135 4.8 9.7 0.00 0.00 0.00 78 1021.1
20220811061818 7 126 4.8 9.7 0.00 0.00 0.00 78 1020.9
20220811061257 7 120 3.2 9.7 0.00 0.00 0.00 77 1020.8
20220811060839 7 120 3.2 9.7 0.00 0.00 0.00 77 1020.8
20220811060339 7 117 3.2 8.0 0.00 0.00 0.00 77 1020.5
20220811055839 7 114 3.2 12.9 0.00 0.00 0.00 77 1020.6
20220811055318 7 111 4.8 12.9 0.00 0.00 0.00 77 1020.5
20220811054839 7 118 3.2 11.3 0.00 0.00 0.00 77 1020.5
20220811054257 7 125 3.2 9.7 0.00 0.00 0.00 76 1020.4
20220811053839 7 123 3.2 11.3 0.00 0.00 0.00 76 1020.4
20220811053339 7 118 3.2 11.3 0.00 0.00 0.00 76 1020.1
20220811052757 8 112 4.8 9.7 0.00 0.00 0.00 76 1020.2
20220811052257 8 120 6.4 14.5 0.00 0.00 0.00 75 1020.2
20220811051757 8 120 8.0 19.3 0.00 0.00 0.00 75 1020.1
20220811051257 8 115 8.0 19.3 0.00 0.00 0.00 75 1020.0
20220811050757 8 112 4.8 11.3 0.00 0.00 0.00 74 1020.0
20220811050339 8 116 6.4 11.3 0.00 0.00 0.00 74 1020.0
20220811045757 8 131 6.4 14.5 0.00 0.00 0.00 74 1019.8
20220811045257 8 139 8.0 14.5 0.00 0.00 0.00 74 1020.1
20220811044839 8 142 8.0 14.5 0.00 0.00 0.00 74 1020.0
20220811044318 8 143 8.0 14.5 0.00 0.00 0.00 74 1019.9
20220811043818 8 142 8.0 16.1 0.00 0.00 0.00 74 1019.8
20220811043318 8 146 9.7 20.9 0.00 0.00 0.00 74 1019.8
20220811042757 8 139 11.3 20.9 0.00 0.00 0.00 74 1019.7
20220811042257 8 135 9.7 19.3 0.00 0.00 0.00 75 1019.7
20220811041839 8 139 9.7 19.3 0.00 0.00 0.00 75 1019.8
20220811041339 8 144 9.7 16.1 0.00 0.00 0.00 75 1019.6
20220811040757 8 143 8.0 16.1 0.00 0.00 0.00 75 1019.8
20220811040318 8 143 9.7 16.1 0.00 0.00 0.00 75 1019.8
20220811035839 8 139 9.7 17.7 0.00 0.00 0.00 74 1019.8
20220811035318 8 134 9.7 17.7 0.00 0.00 0.00 74 1019.9
20220811034839 8 143 9.7 20.9 0.00 0.00 0.00 73 1019.8
20220811034318 9 136 9.7 20.9 0.00 0.00 0.00 73 1019.8
20220811033757 9 130 9.7 20.9 0.00 0.00 0.00 73 1019.8
20220811033257 9 119 8.0 20.9 0.00 0.00 0.00 73 1019.8
20220811032839 9 103 9.7 20.9 0.00 0.00 0.00 73 1019.7
20220811032257 9 112 9.7 20.9 0.00 0.00 0.00 72 1019.6
20220811031818 9 114 8.0 20.9 0.00 0.00 0.00 72 1019.6
20220811031339 9 114 8.0 14.5 0.00 0.00 0.00 73 1019.5
20220811030757 9 121 6.4 14.5 0.00 0.00 0.00 72 1019.6
20220811030318 9 114 8.0 19.3 0.00 0.00 0.00 72 1019.7
20220811025757 10 117 9.7 19.3 0.00 0.00 0.00 71 1019.6
20220811025339 10 120 9.7 19.3 0.00 0.00 0.00 72 1019.6
20220811024839 9 130 8.0 24.1 0.00 0.00 0.00 73 1019.7
20220811024257 9 145 9.7 24.1 0.00 0.00 0.00 73 1019.7
20220811023839 9 142 9.7 19.3 0.00 0.00 0.00 73 1019.7
20220811023318 9 137 9.7 19.3 0.00 0.00 0.00 73 1019.7
20220811022818 9 147 11.3 19.3 0.00 0.00 0.00 73 1019.8
20220811022318 9 147 11.3 19.3 0.00 0.00 0.00 73 1019.8
20220811021839 9 136 11.3 20.9 0.00 0.00 0.00 73 1019.8
20220811021318 8 133 12.9 22.5 0.00 0.00 0.00 73 1019.8
20220811020818 9 140 11.3 22.5 0.00 0.00 0.00 72 1019.8
20220811020318 9 140 11.3 20.9 0.00 0.00 0.00 71 1019.7
20220811015818 9 135 11.3 22.5 0.00 0.00 0.00 71 1019.8
20220811015318 9 130 11.3 22.5 0.00 0.00 0.00 71 1019.8
20220811014839 10 117 9.7 20.9 0.00 0.00 0.00 72 1019.8
20220811014257 9 126 9.7 19.3 0.00 0.00 0.00 73 1019.7
20220811013819 9 132 9.7 17.7 0.00 0.00 0.00 73 1019.8
20220811013339 9 132 9.7 17.7 0.00 0.00 0.00 74 1020.1
20220811012818 8 131 8.0 20.9 0.00 0.00 0.00 74 1020.0
20220811012318 8 125 9.7 20.9 0.00 0.00 0.00 74 1020.1
20220811011818 8 130 9.7 19.3 0.00 0.00 0.00 74 1020.2
20220811011339 8 140 8.0 14.5 0.00 0.00 0.00 73 1020.2
20220811010818 9 136 6.4 11.3 0.00 0.00 0.00 73 1020.3
20220811010318 9 130 6.4 12.9 0.00 0.00 0.00 73 1020.4
20220811005757 8 119 6.4 12.9 0.00 0.00 0.00 73 1020.4
20220811005318 8 123 6.4 16.1 0.00 0.00 0.00 73 1020.4
20220811004818 8 135 8.0 16.1 0.00 0.00 0.00 72 1020.5
20220811004257 8 131 8.0 17.7 0.00 0.00 0.00 72 1020.5
20220811003818 8 126 8.0 17.7 0.00 0.00 0.00 72 1020.5
20220811003318 8 123 8.0 16.1 0.00 0.00 0.00 72 1020.7
20220811002839 8 112 8.0 16.1 0.00 0.00 0.00 72 1020.6
20220811002318 8 117 8.0 16.1 0.00 0.00 0.00 73 1020.6
20220811001818 8 131 8.0 16.1 0.00 0.00 0.00 73 1020.8